EDT,Max TemperatureF,Mean TemperatureF,Min TemperatureF,Max Dew PointF,MeanDew PointF,Min DewpointF,Max Humidity, Mean Humidity, Min Humidity, Max Sea Level PressureIn, Mean Sea Level PressureIn, Min Sea Level PressureIn, Max VisibilityMiles, Mean VisibilityMiles, Min VisibilityMiles, Max Wind SpeedMPH, Mean Wind SpeedMPH, Max Gust SpeedMPH,PrecipitationIn, CloudCover, Events, WindDirDegrees
2013-4-1,49,41,32,43,36,23,92,76,59,30.05,29.92,29.85,10,9,2,21,9,29,0.09,7,Rain,282
2013-4-2,44,36,27,21,14,9,63,44,25,30.22,30.16,30.06,10,10,10,20,8,28,0.00,2,,308
2013-4-3,46,34,21,16,11,7,68,44,20,30.35,30.31,30.22,10,10,10,17,6,25,0.00,0,,341
2013-4-4,41,35,28,34,20,9,96,65,33,30.35,30.18,29.98,10,8,4,20,8,28,0.59,5,Rain,128
2013-4-5,56,46,35,39,33,24,100,66,32,30.09,29.99,29.92,10,6,0,21,7,26,0.23,5,Fog-Rain,329
2013-4-6,64,47,29,31,25,20,69,46,22,30.22,30.14,30.09,10,10,10,18,7,28,0.00,0,,131
2013-4-7,69,58,46,38,34,28,58,45,32,30.11,30.06,30.01,10,10,10,24,10,31,0.00,1,,198
2013-4-8,73,62,50,45,41,37,66,50,33,30.08,30.03,29.97,10,10,10,22,8,29,0.00,4,,221
2013-4-9,79,67,55,49,45,40,72,52,31,30.13,30.07,30.00,10,10,10,17,7,25,0.00,1,,221
2013-4-10,83,68,53,52,47,43,77,51,24,30.05,29.97,29.86,10,10,10,18,7,25,0.00,0,,226
2013-4-11,81,71,60,55,48,39,65,44,23,29.86,29.76,29.62,10,10,10,17,9,25,0.09,2,Rain,181
2013-4-12,63,54,45,58,48,32,87,64,40,29.90,29.69,29.53,10,9,4,23,10,31,0.44,6,Rain,252
2013-4-13,63,53,42,35,30,23,67,46,25,30.03,29.95,29.88,10,10,10,28,11,35,0.00,2,,281
2013-4-14,73,56,38,45,32,26,65,43,20,30.09,30.02,29.96,10,10,10,18,6,23,0.02,1,Rain,165
2013-4-15,57,54,50,50,48,46,89,81,72,30.18,30.09,29.99,10,10,6,18,12,29,0.18,7,Rain,135
2013-4-16,80,67,54,55,52,49,89,63,37,30.24,30.16,30.08,10,10,10,18,8,29,0.04,3,,167
2013-4-17,72,64,56,57,54,39,93,71,49,30.28,30.18,30.09,10,10,10,14,6,20,0.19,4,Rain,180
2013-4-18,76,68,59,56,53,49,78,61,44,30.08,29.99,29.83,10,10,10,23,12,32,0.00,1,,159
2013-4-19,68,53,38,61,48,34,93,78,63,29.95,29.77,29.59,10,8,1,25,12,32,0.51,7,Rain,256
2013-4-20,53,43,33,34,26,18,76,52,27,30.35,30.14,29.96,10,10,10,23,10,29,T,3,,308
2013-4-21,59,45,30,30,25,22,78,53,28,30.48,30.42,30.37,10,10,10,18,6,25,0.00,0,,121
2013-4-22,60,49,37,31,27,20,70,47,24,30.42,30.33,30.25,10,10,10,16,9,23,0.00,0,,126
2013-4-23,71,56,40,42,32,25,70,47,23,30.25,30.15,30.01,10,10,10,14,6,21,0.00,0,,161
2013-4-24,75,57,39,53,45,35,93,67,41,30.19,30.00,29.86,10,10,4,40,12,51,0.09,5,Rain,257
2013-4-25,59,46,33,36,27,21,89,57,24,30.38,30.28,30.18,10,10,10,15,7,23,0.00,3,,314
2013-4-26,64,49,33,33,28,25,75,49,23,30.44,30.39,30.33,10,10,8,13,3,17,0.00,0,,328
2013-4-27,64,54,44,46,37,28,83,61,39,30.35,30.28,30.16,10,10,10,14,6,21,0.01,6,Rain,158
2013-4-28,59,55,50,48,46,45,86,77,67,30.19,30.07,29.99,10,9,3,22,11,32,0.22,6,Rain,148
2013-4-29,63,56,48,54,49,46,93,79,64,30.04,30.01,29.97,10,10,5,15,5,22,0.03,7,Rain,207
2013-4-30,73,61,48,52,50,46,93,69,44,30.14,30.06,30.01,10,10,8,16,7,22,0.00,3,,134